,,,PA_Meas_PMT16A,,PR_Meas_QMR101_102,,RH_Meas_QMH101,,SR_Meas_QMS101,,TA_Meas_QMH101,,GenWind,,GenWind,
date,time,status,PA,status,PR,status,RH,status,SR,status,TA,status,DirAvg,status,SpdAvg,
2008-09-05, 00:00:04,VALID,1003.43,VALID,0,VALID,87.1447,VALID,0.100563,VALID,25.9817,VALID,86,VALID,0.616406,
2008-09-05, 00:01:04,VALID,1003.39,VALID,0,VALID,87.1905,VALID,0,VALID,25.9622,VALID,52,VALID,0.555078,
2008-09-05, 00:02:04,VALID,1003.38,VALID,0,VALID,87.282,VALID,0.100563,VALID,25.9427,VALID,45,VALID,0.335547,
2008-09-05, 00:03:04,VALID,1003.38,VALID,0,VALID,87.3812,VALID,0,VALID,25.9038,VALID,23,VALID,0.785547,
2008-09-05, 00:04:04,VALID,1003.35,VALID,0,VALID,87.5414,VALID,0,VALID,25.8473,VALID,23,VALID,0.425,
2008-09-05, 00:05:04,VALID,1003.36,VALID,0,VALID,87.755,VALID,0.100563,VALID,25.7869,VALID,22,VALID,0.430078,
2008-09-05, 00:06:04,VALID,1003.28,VALID,0,VALID,88.022,VALID,0,VALID,25.7071,VALID,343,VALID,0.7,
2008-09-05, 00:07:04,VALID,1003.32,VALID,0,VALID,88.2738,VALID,0.100563,VALID,25.7071,VALID,44,VALID,0.216406,
2008-09-05, 00:08:04,VALID,1003.29,VALID,0,VALID,88.3653,VALID,0,VALID,25.67,VALID,44,VALID,0.477734,
2008-09-05, 00:09:04,VALID,1003.31,VALID,0,VALID,88.5713,VALID,0,VALID,25.5921,VALID,43,VALID,0.540625,
2008-09-05, 00:10:04,VALID,1003.24,VALID,0,VALID,89.0443,VALID,0,VALID,25.5532,VALID,352,VALID,0.976172,
2008-09-05, 00:11:04,VALID,1003.24,VALID,0,VALID,88.8993,VALID,0,VALID,25.6116,VALID,22,VALID,0.623828,
2008-09-05, 00:12:04,VALID,1003.24,VALID,0,VALID,88.762,VALID,0,VALID,25.5921,VALID,20,VALID,0.223047,
2008-09-05, 00:13:04,VALID,1003.21,VALID,0,VALID,88.9451,VALID,0,VALID,25.6136,VALID,20,VALID,0.58125,
2008-09-05, 00:14:04,VALID,1003.18,VALID,0,VALID,89.0824,VALID,0,VALID,25.633,VALID,20,VALID,0.647266,
2008-09-05, 00:15:04,VALID,1003.17,VALID,0,VALID,88.9299,VALID,0,VALID,25.6525,VALID,331,VALID,0.207813,
2008-09-05, 00:16:04,VALID,1003.13,VALID,0,VALID,88.907,VALID,0,VALID,25.6311,VALID,335,VALID,0.280078,
2008-09-05, 00:17:04,VALID,1003.12,VALID,0,VALID,89.0824,VALID,0,VALID,25.6525,VALID,22,VALID,0.898438,
2008-09-05, 00:18:04,VALID,1003.07,VALID,0,VALID,88.907,VALID,0,VALID,25.6525,VALID,24,VALID,0.49375,
2008-09-05, 00:19:04,VALID,1003.1,VALID,0,VALID,88.9299,VALID,0,VALID,25.6136,VALID,24,VALID,0.472266,
2008-09-05, 00:20:04,VALID,1003.09,VALID,0,VALID,89.2884,VALID,0,VALID,25.633,VALID,15,VALID,0.780469,
2008-09-05, 00:21:04,VALID,1003.09,VALID,0,VALID,88.8459,VALID,0,VALID,25.6525,VALID,345,VALID,0.476953,
2008-09-05, 00:22:04,VALID,1003.07,VALID,0,VALID,88.8612,VALID,0.100563,VALID,25.6311,VALID,21,VALID,1.04336,
2008-09-05, 00:23:04,VALID,1003.05,VALID,0,VALID,88.9222,VALID,0,VALID,25.5532,VALID,341,VALID,0.852344,
2008-09-05, 00:24:04,VALID,1003.04,VALID,0,VALID,89.0595,VALID,0,VALID,25.5142,VALID,343,VALID,0.994141,
2008-09-05, 00:25:04,VALID,1003.07,VALID,0,VALID,89.2732,VALID,0,VALID,25.4753,VALID,340,VALID,1.00781,
2008-09-05, 00:26:04,VALID,1003.03,VALID,0,VALID,89.5249,VALID,0,VALID,25.4383,VALID,357,VALID,0.645312,
2008-09-05, 00:27:04,VALID,1003,VALID,0,VALID,89.6699,VALID,0,VALID,25.3993,VALID,355,VALID,0.516797,
2008-09-05, 00:28:04,VALID,1003.02,VALID,0,VALID,89.8606,VALID,0,VALID,25.339,VALID,358,VALID,0.625,
2008-09-05, 00:29:04,VALID,1002.99,VALID,0,VALID,90.0132,VALID,0,VALID,25.3214,VALID,358,VALID,0.357031,
2008-09-05, 00:30:04,VALID,1002.97,VALID,0,VALID,90.1657,VALID,0,VALID,25.2806,VALID,358,VALID,0.19375,
2008-09-05, 00:31:04,VALID,1002.95,VALID,0,VALID,90.3183,VALID,0,VALID,25.263,VALID,358,VALID,0.474219,
2008-09-05, 00:32:04,VALID,1002.93,VALID,0,VALID,90.4633,VALID,0,VALID,25.2027,VALID,358,VALID,0,
2008-09-05, 00:33:04,VALID,1002.93,VALID,0,VALID,90.6158,VALID,0,VALID,25.1832,VALID,358,VALID,0.516406,
2008-09-05, 00:34:04,VALID,1002.93,VALID,0,VALID,90.7684,VALID,0,VALID,25.1637,VALID,358,VALID,0.490234,
2008-09-05, 00:35:04,VALID,1002.91,VALID,0,VALID,90.8523,VALID,0,VALID,25.1637,VALID,358,VALID,0.594531,
2008-09-05, 00:36:04,VALID,1002.91,VALID,0,VALID,90.8371,VALID,0,VALID,25.2027,VALID,13,VALID,0.778125,
2008-09-05, 00:37:04,VALID,1002.9,VALID,0,VALID,90.7379,VALID,0,VALID,25.224,VALID,24,VALID,0.251563,
2008-09-05, 00:38:04,VALID,1002.91,VALID,0,VALID,90.6616,VALID,0,VALID,25.2027,VALID,24,VALID,0.288672,
2008-09-05, 00:39:04,VALID,1002.91,VALID,0,VALID,90.6769,VALID,0,VALID,25.1832,VALID,24,VALID,0.226563,
2008-09-05, 00:40:04,VALID,1002.93,VALID,0,VALID,90.6921,VALID,0,VALID,25.1851,VALID,24,VALID,0.310547,
2008-09-05, 00:41:04,VALID,1002.94,VALID,0,VALID,90.8142,VALID,0,VALID,25.1656,VALID,23,VALID,0.575391,
2008-09-05, 00:42:04,VALID,1002.93,VALID,0,VALID,90.8371,VALID,0,VALID,25.1656,VALID,21,VALID,0.228906,
2008-09-05, 00:43:04,VALID,1002.93,VALID,0,VALID,90.8142,VALID,0,VALID,25.1656,VALID,21,VALID,0.338672,
2008-09-05, 00:44:04,VALID,1002.95,VALID,0,VALID,90.7989,VALID,0,VALID,25.1248,VALID,21,VALID,0,
2008-09-05, 00:45:04,VALID,1002.95,VALID,0,VALID,90.8218,VALID,0,VALID,25.1248,VALID,21,VALID,0.504687,
2008-09-05, 00:46:04,VALID,1002.97,VALID,0,VALID,90.8905,VALID,0,VALID,25.0858,VALID,21,VALID,0.200781,
2008-09-05, 00:47:04,VALID,1002.99,VALID,0,VALID,90.9668,VALID,0,VALID,25.0663,VALID,21,VALID,0.0113281,
2008-09-05, 00:48:04,VALID,1002.98,VALID,0,VALID,91.0202,VALID,0,VALID,25.0469,VALID,21,VALID,0.153906,
2008-09-05, 00:49:04,VALID,1003,VALID,0,VALID,91.1499,VALID,0.100563,VALID,25.0274,VALID,20,VALID,0.571484,
2008-09-05, 00:50:04,VALID,1002.99,VALID,0,VALID,91.2948,VALID,0,VALID,25.0274,VALID,11,VALID,0.512109,
2008-09-05, 00:51:04,VALID,1002.97,VALID,0,VALID,91.0659,VALID,0,VALID,25.045,VALID,1,VALID,0.483984,
2008-09-05, 00:52:04,VALID,1003.01,VALID,0,VALID,91.127,VALID,0,VALID,25.0682,VALID,1,VALID,0.342578,
2008-09-05, 00:53:04,VALID,1002.96,VALID,0,VALID,91.1499,VALID,0,VALID,25.0682,VALID,1,VALID,0.254297,
2008-09-05, 00:54:04,VALID,1002.94,VALID,0,VALID,90.982,VALID,0,VALID,25.0682,VALID,3,VALID,0.351563,
2008-09-05, 00:55:04,VALID,1002.91,VALID,0,VALID,90.9744,VALID,0,VALID,25.0079,VALID,3,VALID,0.401563,
2008-09-05, 00:56:04,VALID,1002.88,VALID,0,VALID,91.2414,VALID,0,VALID,24.9885,VALID,3,VALID,0.371094,
2008-09-05, 00:57:04,VALID,1002.82,VALID,0,VALID,91.2414,VALID,0,VALID,25.0098,VALID,3,VALID,0.328125,
2008-09-05, 00:58:04,VALID,1002.8,VALID,0,VALID,91.1041,VALID,0,VALID,25.0274,VALID,3,VALID,0,
2008-09-05, 00:59:04,VALID,1002.78,VALID,0,VALID,91.1575,VALID,0,VALID,25.0469,VALID,4,VALID,0.422266,
2008-09-05, 01:00:04,VALID,1002.75,VALID,0,VALID,91.0125,VALID,0,VALID,25.0663,VALID,11,VALID,0.380469,
2008-09-05, 01:01:04,VALID,1002.74,VALID,0,VALID,90.7074,VALID,0,VALID,25.0877,VALID,3,VALID,0.821875,
2008-09-05, 01:02:04,VALID,1002.72,VALID,0,VALID,90.8218,VALID,0,VALID,25.0488,VALID,2,VALID,0.633203,
2008-09-05, 01:03:04,VALID,1002.7,VALID,0,VALID,91.0049,VALID,0,VALID,25.0098,VALID,1,VALID,0.540234,
2008-09-05, 01:04:04,VALID,1002.68,VALID,0,VALID,91.0659,VALID,0,VALID,24.9514,VALID,1,VALID,0.115625,
2008-09-05, 01:05:04,VALID,1002.66,VALID,0,VALID,91.1651,VALID,0,VALID,24.9106,VALID,1,VALID,0.311328,
2008-09-05, 01:06:04,VALID,1002.66,VALID,0,VALID,91.1956,VALID,0,VALID,24.8735,VALID,1,VALID,0.382813,
2008-09-05, 01:07:04,VALID,1002.63,VALID,0,VALID,91.4169,VALID,0,VALID,24.8346,VALID,1,VALID,0.288672,
2008-09-05, 01:08:04,VALID,1002.59,VALID,0,VALID,91.7907,VALID,0,VALID,24.8151,VALID,360,VALID,0.5375,
2008-09-05, 01:09:04,VALID,1002.58,VALID,0,VALID,91.6686,VALID,0,VALID,24.8151,VALID,360,VALID,0.215625,
2008-09-05, 01:10:04,VALID,1002.53,VALID,0,VALID,91.8441,VALID,0,VALID,24.7956,VALID,360,VALID,0.266797,
2008-09-05, 01:11:04,VALID,1002.52,VALID,0,VALID,91.8059,VALID,0,VALID,24.7956,VALID,360,VALID,0.349609,
2008-09-05, 01:12:04,VALID,1002.5,VALID,0,VALID,92.1721,VALID,0,VALID,24.7956,VALID,30,VALID,0.928516,
2008-09-05, 01:13:04,VALID,1002.48,VALID,0,VALID,92.0501,VALID,0,VALID,24.854,VALID,21,VALID,0.716797,
2008-09-05, 01:14:04,VALID,1002.47,VALID,0,VALID,91.4626,VALID,0,VALID,24.8346,VALID,18,VALID,0.614062,
2008-09-05, 01:15:04,VALID,1002.5,VALID,0,VALID,91.6381,VALID,0,VALID,24.8151,VALID,15,VALID,0.394922,
2008-09-05, 01:16:04,VALID,1002.49,VALID,0,VALID,91.5542,VALID,0,VALID,24.7761,VALID,15,VALID,0.330859,
2008-09-05, 01:17:04,VALID,1002.49,VALID,0,VALID,91.6839,VALID,0,VALID,24.7353,VALID,16,VALID,0.586719,
2008-09-05, 01:18:04,VALID,1002.49,VALID,0,VALID,92.134,VALID,0.100563,VALID,24.7353,VALID,32,VALID,0.841406,
2008-09-05, 01:19:04,VALID,1002.49,VALID,0,VALID,92.0653,VALID,0,VALID,24.7743,VALID,40,VALID,0.606641,
2008-09-05, 01:20:04,VALID,1002.46,VALID,0,VALID,92.0653,VALID,0,VALID,24.8327,VALID,10,VALID,0.667969,
2008-09-05, 01:21:04,VALID,1002.46,VALID,0,VALID,91.9814,VALID,0.100563,VALID,24.8911,VALID,45,VALID,0.642969,
2008-09-05, 01:22:04,VALID,1002.44,VALID,0,VALID,91.6076,VALID,0,VALID,24.93,VALID,64,VALID,0.00351562,
2008-09-05, 01:23:04,VALID,1002.4,VALID,0,VALID,91.5161,VALID,0,VALID,24.9106,VALID,18,VALID,0.433594,
2008-09-05, 01:24:04,VALID,1002.38,VALID,0,VALID,91.2262,VALID,0,VALID,24.9495,VALID,18,VALID,0.451172,
2008-09-05, 01:25:04,VALID,1002.41,VALID,0,VALID,91.2796,VALID,0,VALID,24.9709,VALID,360,VALID,0.638672,
2008-09-05, 01:26:04,VALID,1002.38,VALID,0,VALID,91.1575,VALID,0,VALID,24.93,VALID,11,VALID,0.606641,
2008-09-05, 01:27:04,VALID,1002.42,VALID,0,VALID,91.2643,VALID,0,VALID,24.9106,VALID,14,VALID,0.584375,
2008-09-05, 01:28:04,VALID,1002.43,VALID,0,VALID,91.4703,VALID,0,VALID,24.9106,VALID,17,VALID,0.669922,
2008-09-05, 01:29:04,VALID,1002.43,VALID,0,VALID,91.4245,VALID,0,VALID,24.93,VALID,28,VALID,0.590234,
2008-09-05, 01:30:04,VALID,1002.43,VALID,0,VALID,91.6,VALID,0,VALID,24.9495,VALID,44,VALID,0.732031,
2008-09-05, 01:31:04,VALID,1002.39,VALID,0,VALID,91.6152,VALID,0.100563,VALID,25.0274,VALID,35,VALID,0.282422,
2008-09-05, 01:32:04,VALID,1002.41,VALID,0,VALID,91.1499,VALID,0,VALID,25.0877,VALID,342,VALID,0.582031,
2008-09-05, 01:33:04,VALID,1002.42,VALID,0,VALID,90.7837,VALID,0,VALID,25.1053,VALID,343,VALID,0.239063,
2008-09-05, 01:34:04,VALID,1002.45,VALID,0,VALID,90.6998,VALID,0,VALID,25.1053,VALID,343,VALID,0.341406,
2008-09-05, 01:35:04,VALID,1002.47,VALID,0,VALID,90.5472,VALID,0,VALID,25.1461,VALID,342,VALID,0.509766,
2008-09-05, 01:36:04,VALID,1002.47,VALID,0,VALID,90.509,VALID,0.100563,VALID,25.1053,VALID,351,VALID,0.616406,
2008-09-05, 01:37:04,VALID,1002.48,VALID,0,VALID,90.7226,VALID,0,VALID,25.0682,VALID,346,VALID,0.804688,
2008-09-05, 01:38:04,VALID,1002.49,VALID,0,VALID,90.6998,VALID,0,VALID,25.0469,VALID,345,VALID,0.475,
2008-09-05, 01:39:04,VALID,1002.46,VALID,0,VALID,90.654,VALID,0,VALID,25.0274,VALID,345,VALID,0.339453,
2008-09-05, 01:40:04,VALID,1002.45,VALID,0,VALID,90.8066,VALID,0,VALID,25.0469,VALID,17,VALID,1.07031,
2008-09-05, 01:41:04,VALID,1002.47,VALID,0,VALID,90.5777,VALID,0,VALID,25.1053,VALID,349,VALID,0.835938,
2008-09-05, 01:42:04,VALID,1002.43,VALID,0,VALID,90.3641,VALID,0,VALID,25.1248,VALID,37,VALID,0.53125,
2008-09-05, 01:43:04,VALID,1002.47,VALID,0,VALID,90.3488,VALID,0,VALID,25.1053,VALID,39,VALID,0.0960938,
2008-09-05, 01:44:04,VALID,1002.45,VALID,0,VALID,90.4251,VALID,0,VALID,25.0858,VALID,39,VALID,0.136719,
2008-09-05, 01:45:04,VALID,1002.43,VALID,0,VALID,90.5167,VALID,0,VALID,25.0858,VALID,63,VALID,0.681641,
2008-09-05, 01:46:04,VALID,1002.43,VALID,0,VALID,90.4556,VALID,0,VALID,25.1248,VALID,26,VALID,0.463281,
2008-09-05, 01:47:04,VALID,1002.4,VALID,0,VALID,90.3107,VALID,0,VALID,25.1442,VALID,23,VALID,0.224219,
2008-09-05, 01:48:04,VALID,1002.38,VALID,0,VALID,90.2649,VALID,0,VALID,25.1461,VALID,23,VALID,0.178516,
2008-09-05, 01:49:04,VALID,1002.38,VALID,0,VALID,90.2191,VALID,0,VALID,25.1656,VALID,23,VALID,0.510156,
2008-09-05, 01:50:04,VALID,1002.39,VALID,0,VALID,90.1963,VALID,0,VALID,25.1248,VALID,6,VALID,0.628906,
2008-09-05, 01:51:04,VALID,1002.4,VALID,0,VALID,90.036,VALID,0,VALID,25.1248,VALID,358,VALID,0.710938,
2008-09-05, 01:52:04,VALID,1002.42,VALID,0,VALID,89.7919,VALID,0.100563,VALID,25.1637,VALID,38,VALID,1.49141,
2008-09-05, 01:53:04,VALID,1002.37,VALID,0,VALID,89.6241,VALID,0,VALID,25.2027,VALID,355,VALID,0.567187,
2008-09-05, 01:54:04,VALID,1002.37,VALID,0,VALID,89.647,VALID,0,VALID,25.1618,VALID,7,VALID,0.527344,
2008-09-05, 01:55:04,VALID,1002.36,VALID,0,VALID,89.769,VALID,0,VALID,25.1851,VALID,37,VALID,0.574609,
2008-09-05, 01:56:04,VALID,1002.36,VALID,0,VALID,89.6622,VALID,0,VALID,25.1832,VALID,29,VALID,0.592188,
2008-09-05, 01:57:04,VALID,1002.37,VALID,0,VALID,89.5325,VALID,0,VALID,25.2221,VALID,67,VALID,0.465625,
2008-09-05, 01:58:04,VALID,1002.34,VALID,0,VALID,89.3418,VALID,0,VALID,25.2221,VALID,72,VALID,0.288281,
2008-09-05, 01:59:04,VALID,1002.35,VALID,0,VALID,89.1892,VALID,0.100563,VALID,25.263,VALID,72,VALID,0.117969,
2008-09-05, 02:00:04,VALID,1002.36,VALID,0,VALID,89.0824,VALID,0,VALID,25.2416,VALID,76,VALID,0.346094,
2008-09-05, 02:01:04,VALID,1002.33,VALID,0,VALID,88.9909,VALID,0,VALID,25.2611,VALID,76,VALID,0.275391,
2008-09-05, 02:02:04,VALID,1002.4,VALID,0,VALID,88.701,VALID,0.100563,VALID,25.3,VALID,89,VALID,0.487891,
2008-09-05, 02:03:04,VALID,1002.37,VALID,0,VALID,88.4874,VALID,0,VALID,25.3214,VALID,91,VALID,0.737891,
2008-09-05, 02:04:04,VALID,1002.39,VALID,0,VALID,88.3806,VALID,0,VALID,25.3195,VALID,107,VALID,0.703906,
2008-09-05, 02:05:04,VALID,1002.36,VALID,0,VALID,88.3348,VALID,0,VALID,25.3604,VALID,115,VALID,0.409766,
2008-09-05, 02:06:04,VALID,1002.35,VALID,0,VALID,88.2661,VALID,0,VALID,25.4577,VALID,84,VALID,0.766016,
2008-09-05, 02:07:04,VALID,1002.33,VALID,0,VALID,87.9839,VALID,0,VALID,25.4558,VALID,99,VALID,0.686719,
2008-09-05, 02:08:04,VALID,1002.32,VALID,0,VALID,87.7855,VALID,0,VALID,25.5142,VALID,79,VALID,0.625391,
2008-09-05, 02:09:04,VALID,1002.33,VALID,0,VALID,87.7016,VALID,0,VALID,25.5162,VALID,78,VALID,0.401563,
2008-09-05, 02:10:04,VALID,1002.3,VALID,0,VALID,87.6406,VALID,0,VALID,25.4948,VALID,78,VALID,0.191016,
2008-09-05, 02:11:04,VALID,1002.25,VALID,0,VALID,87.7474,VALID,0,VALID,25.4753,VALID,88,VALID,0.582812,
2008-09-05, 02:12:04,VALID,1002.19,VALID,0,VALID,87.8466,VALID,0,VALID,25.4558,VALID,90,VALID,0.527734,
2008-09-05, 02:13:04,VALID,1002.16,VALID,0,VALID,88.1746,VALID,0,VALID,25.4577,VALID,131,VALID,0.550391,
2008-09-05, 02:14:04,VALID,1002.15,VALID,0,VALID,88.2814,VALID,0,VALID,25.4772,VALID,122,VALID,0.262891,
2008-09-05, 02:15:04,VALID,1002.13,VALID,0,VALID,88.2585,VALID,0,VALID,25.4363,VALID,106,VALID,0.592188,
2008-09-05, 02:16:04,VALID,1002.09,VALID,0,VALID,88.3806,VALID,0,VALID,25.4344,VALID,104,VALID,0.716406,
2008-09-05, 02:17:04,VALID,1002.06,VALID,0,VALID,88.228,VALID,0,VALID,25.4734,VALID,86,VALID,0.563281,
2008-09-05, 02:18:04,VALID,1002.04,VALID,0,VALID,87.9991,VALID,0,VALID,25.4558,VALID,86,VALID,0.263281,
2008-09-05, 02:19:04,VALID,1002.06,VALID,0,VALID,88.0983,VALID,0,VALID,25.4169,VALID,85,VALID,0.109766,
2008-09-05, 02:20:04,VALID,1002.05,VALID,0,VALID,88.2509,VALID,0,VALID,25.3798,VALID,82,VALID,0.313672,
2008-09-05, 02:21:04,VALID,1002.04,VALID,0,VALID,88.3729,VALID,0,VALID,25.3195,VALID,72,VALID,0.338281,
2008-09-05, 02:22:04,VALID,1002.04,VALID,0,VALID,88.3729,VALID,0,VALID,25.2435,VALID,59,VALID,0.467187,
2008-09-05, 02:23:04,VALID,1002.05,VALID,0,VALID,88.7391,VALID,0,VALID,25.1072,VALID,58,VALID,0,
2008-09-05, 02:24:04,VALID,1002.04,VALID,0,VALID,89.3113,VALID,0,VALID,25.1072,VALID,81,VALID,0.49375,
2008-09-05, 02:25:04,VALID,1002.06,VALID,0,VALID,89.5936,VALID,0,VALID,25.0858,VALID,68,VALID,0.316406,
2008-09-05, 02:26:04,VALID,1002.09,VALID,0,VALID,89.5325,VALID,0,VALID,25.0663,VALID,68,VALID,0.0277344,
2008-09-05, 02:27:04,VALID,1002.08,VALID,0,VALID,89.6317,VALID,0,VALID,25.0293,VALID,68,VALID,0.0015625,
2008-09-05, 02:28:04,VALID,1002.09,VALID,0,VALID,90.0284,VALID,0,VALID,24.9885,VALID,68,VALID,0.467187,
2008-09-05, 02:29:04,VALID,1002.09,VALID,0,VALID,89.8453,VALID,0,VALID,24.9885,VALID,50,VALID,0.489062,
2008-09-05, 02:30:04,VALID,1002.08,VALID,0,VALID,89.9445,VALID,0,VALID,24.969,VALID,33,VALID,0.570313,
2008-09-05, 02:31:04,VALID,1002.06,VALID,0,VALID,89.914,VALID,0,VALID,24.9106,VALID,17,VALID,0.551953,
2008-09-05, 02:32:04,VALID,1002.06,VALID,0,VALID,90.1352,VALID,0,VALID,24.8716,VALID,6,VALID,0.285937,
2008-09-05, 02:33:04,VALID,1002.05,VALID,0,VALID,90.2725,VALID,0,VALID,24.8132,VALID,5,VALID,0.647656,
2008-09-05, 02:34:04,VALID,1002.06,VALID,0,VALID,90.4404,VALID,0,VALID,24.7353,VALID,1,VALID,0.478906,
2008-09-05, 02:35:04,VALID,1002.09,VALID,0,VALID,90.7303,VALID,0,VALID,24.6964,VALID,360,VALID,0.292578,
2008-09-05, 02:36:04,VALID,1002.12,VALID,0,VALID,90.8371,VALID,0,VALID,24.638,VALID,360,VALID,0.214453,
2008-09-05, 02:37:04,VALID,1002.12,VALID,0,VALID,91.0125,VALID,0,VALID,24.5796,VALID,360,VALID,0.255469,
2008-09-05, 02:38:04,VALID,1002.08,VALID,0,VALID,91.2033,VALID,0,VALID,24.523,VALID,360,VALID,0,
2008-09-05, 02:39:04,VALID,1002.09,VALID,0,VALID,91.6,VALID,0,VALID,24.5035,VALID,360,VALID,0.0210938,
2008-09-05, 02:40:04,VALID,1002.11,VALID,0,VALID,91.8288,VALID,0,VALID,24.4822,VALID,360,VALID,0.000390625,
2008-09-05, 02:41:04,VALID,1002.13,VALID,0,VALID,92.2255,VALID,0,VALID,24.5212,VALID,360,VALID,0.192969,
2008-09-05, 02:42:04,VALID,1002.12,VALID,0,VALID,92.2255,VALID,0,VALID,24.5601,VALID,360,VALID,0,
2008-09-05, 02:43:04,VALID,1002.11,VALID,0,VALID,92.073,VALID,0,VALID,24.5601,VALID,360,VALID,0,
2008-09-05, 02:44:04,VALID,1002.08,VALID,0,VALID,92.2484,VALID,0,VALID,24.5796,VALID,360,VALID,0,
2008-09-05, 02:45:04,VALID,1002.06,VALID,0,VALID,92.2561,VALID,0,VALID,24.6185,VALID,360,VALID,0.101953,
2008-09-05, 02:46:04,VALID,1002.07,VALID,0,VALID,92.0653,VALID,0,VALID,24.638,VALID,360,VALID,0.0808594,
2008-09-05, 02:47:04,VALID,1002.08,VALID,0,VALID,91.9662,VALID,0,VALID,24.6185,VALID,360,VALID,0.400781,
2008-09-05, 02:48:04,VALID,1002.09,VALID,0,VALID,92.1264,VALID,0,VALID,24.6398,VALID,117,VALID,0.694531,
2008-09-05, 02:49:04,VALID,1002.12,VALID,0,VALID,91.9814,VALID,0,VALID,24.6574,VALID,132,VALID,0.282422,
2008-09-05, 02:50:04,VALID,1002.1,VALID,0,VALID,91.9814,VALID,0,VALID,24.6574,VALID,107,VALID,0.366797,
2008-09-05, 02:51:04,VALID,1002.07,VALID,0,VALID,91.4703,VALID,0,VALID,24.638,VALID,94,VALID,0.336328,
2008-09-05, 02:52:04,VALID,1002.04,VALID,0,VALID,91.6534,VALID,0,VALID,24.599,VALID,94,VALID,0.317578,
2008-09-05, 02:53:04,VALID,1002.03,VALID,0,VALID,91.9356,VALID,0,VALID,24.638,VALID,97,VALID,0.312109,
2008-09-05, 02:54:04,VALID,1002.03,VALID,0,VALID,92.1187,VALID,0,VALID,24.7372,VALID,133,VALID,0.198047,
2008-09-05, 02:55:04,VALID,1002.01,VALID,0,VALID,92.0653,VALID,0,VALID,24.7956,VALID,132,VALID,0.546875,
2008-09-05, 02:56:04,VALID,1002.01,VALID,0,VALID,91.9051,VALID,0,VALID,24.893,VALID,93,VALID,0.772656,
2008-09-05, 02:57:04,VALID,1001.99,VALID,0,VALID,91.3864,VALID,0,VALID,24.93,VALID,76,VALID,0.83125,
2008-09-05, 02:58:04,VALID,1002,VALID,0,VALID,90.9668,VALID,0,VALID,24.9495,VALID,69,VALID,0.570313,
2008-09-05, 02:59:04,VALID,1001.96,VALID,0,VALID,90.8676,VALID,0,VALID,25.0274,VALID,51,VALID,0.485547,
2008-09-05, 03:00:04,VALID,1001.94,VALID,0,VALID,90.6082,VALID,0,VALID,25.045,VALID,55,VALID,0.552344,
2008-09-05, 03:01:04,VALID,1001.91,VALID,0,VALID,90.4404,VALID,0.100563,VALID,25.1053,VALID,344,VALID,0.553516,
2008-09-05, 03:02:04,VALID,1001.93,VALID,0,VALID,90.2802,VALID,0,VALID,25.1851,VALID,103,VALID,0.392969,
2008-09-05, 03:03:04,VALID,1001.9,VALID,0,VALID,90.0971,VALID,0,VALID,25.2027,VALID,103,VALID,0.402734,
2008-09-05, 03:04:04,VALID,1001.92,VALID,0,VALID,90.1657,VALID,0,VALID,25.2027,VALID,116,VALID,0.722656,
2008-09-05, 03:05:04,VALID,1001.91,VALID,0,VALID,90.0742,VALID,0,VALID,25.2611,VALID,102,VALID,0.503906,
2008-09-05, 03:06:04,VALID,1001.89,VALID,0,VALID,89.8224,VALID,0,VALID,25.3584,VALID,105,VALID,0.503516,
2008-09-05, 03:07:04,VALID,1002,VALID,0,VALID,89.4868,VALID,0,VALID,25.3779,VALID,131,VALID,1.07969,
2008-09-05, 03:08:04,VALID,1001.99,VALID,0,VALID,89.0214,VALID,0,VALID,25.4753,VALID,149,VALID,1.33555,
2008-09-05, 03:09:04,VALID,1002.02,VALID,0,VALID,88.6247,VALID,0.100563,VALID,25.5337,VALID,149,VALID,1.15586,
2008-09-05, 03:10:04,VALID,1002.06,VALID,0,VALID,88.3424,VALID,0,VALID,25.5532,VALID,145,VALID,0.796094,
2008-09-05, 03:11:04,VALID,1002.07,VALID,0,VALID,88.1899,VALID,0,VALID,25.6136,VALID,131,VALID,0.792188,
2008-09-05, 03:12:04,VALID,1002.07,VALID,0,VALID,88.1975,VALID,0,VALID,25.6116,VALID,162,VALID,0.853906,
2008-09-05, 03:13:04,VALID,1002.06,VALID,0,VALID,88.1288,VALID,0.100563,VALID,25.6116,VALID,160,VALID,0.379297,
2008-09-05, 03:14:04,VALID,1002.08,VALID,0,VALID,87.9457,VALID,0,VALID,25.5941,VALID,160,VALID,0.270703,
2008-09-05, 03:15:04,VALID,1002.14,VALID,0,VALID,87.2896,VALID,0.100563,VALID,25.6116,VALID,133,VALID,1.49648,
2008-09-05, 03:16:04,VALID,1002.14,VALID,0,VALID,86.8319,VALID,0.100563,VALID,25.6506,VALID,133,VALID,1.16133,
2008-09-05, 03:17:04,VALID,1002.16,VALID,0,VALID,86.7938,VALID,0.100563,VALID,25.7109,VALID,135,VALID,1.05313,
2008-09-05, 03:18:04,VALID,1002.14,VALID,0,VALID,86.5496,VALID,0,VALID,25.7889,VALID,142,VALID,1.0918,
2008-09-05, 03:19:04,VALID,1002.18,VALID,0,VALID,86.748,VALID,0.100563,VALID,25.7655,VALID,142,VALID,0.444922,
2008-09-05, 03:20:04,VALID,1002.17,VALID,0,VALID,86.7022,VALID,0.100563,VALID,25.7674,VALID,78,VALID,0.598047,
2008-09-05, 03:21:04,VALID,1002.15,VALID,0,VALID,86.7633,VALID,0.100563,VALID,25.748,VALID,48,VALID,0.0625,
2008-09-05, 03:22:04,VALID,1002.21,VALID,0,VALID,87.0608,VALID,0.100563,VALID,25.7285,VALID,88,VALID,0.74375,
2008-09-05, 03:23:04,VALID,1002.22,VALID,0,VALID,87.1066,VALID,0.100563,VALID,25.6895,VALID,35,VALID,0.623828,
2008-09-05, 03:24:04,VALID,1002.18,VALID,0,VALID,87.3583,VALID,0,VALID,25.5921,VALID,11,VALID,0.420703,
2008-09-05, 03:25:04,VALID,1002.17,VALID,0,VALID,87.7474,VALID,0.100563,VALID,25.4948,VALID,2,VALID,0.716406,
2008-09-05, 03:26:04,VALID,1002.12,VALID,0,VALID,88.3806,VALID,0.100563,VALID,25.3584,VALID,1,VALID,0.464844,
2008-09-05, 03:27:04,VALID,1002.09,VALID,0,VALID,88.7697,VALID,0.100563,VALID,25.2416,VALID,360,VALID,0.730469,
2008-09-05, 03:28:04,VALID,1002.05,VALID,0,VALID,89.6165,VALID,0,VALID,25.1461,VALID,344,VALID,0.427734,
2008-09-05, 03:29:04,VALID,1002,VALID,0,VALID,89.7767,VALID,0,VALID,25.0663,VALID,344,VALID,0.499219,
2008-09-05, 03:30:04,VALID,1001.96,VALID,0,VALID,90.5319,VALID,0,VALID,25.0469,VALID,52,VALID,0.7,
2008-09-05, 03:31:04,VALID,1001.96,VALID,0,VALID,90.4709,VALID,0,VALID,25.0663,VALID,21,VALID,0.373047,
2008-09-05, 03:32:04,VALID,1001.97,VALID,0,VALID,90.4404,VALID,0.100563,VALID,25.1053,VALID,74,VALID,0.314453,
2008-09-05, 03:33:04,VALID,1001.95,VALID,0,VALID,90.4099,VALID,0.100563,VALID,25.1248,VALID,74,VALID,0.276953,
2008-09-05, 03:34:04,VALID,1001.89,VALID,0,VALID,90.3488,VALID,0,VALID,25.2046,VALID,73,VALID,0.161719,
2008-09-05, 03:35:04,VALID,1001.86,VALID,0,VALID,90.1657,VALID,0,VALID,25.2027,VALID,74,VALID,0.173047,
2008-09-05, 03:36:04,VALID,1001.87,VALID,0,VALID,90.1657,VALID,0,VALID,25.2221,VALID,73,VALID,0.266406,
2008-09-05, 03:37:04,VALID,1001.9,VALID,0,VALID,90.0971,VALID,0.100563,VALID,25.2611,VALID,97,VALID,0.560156,
2008-09-05, 03:38:04,VALID,1001.9,VALID,0,VALID,89.8453,VALID,0.100563,VALID,25.3195,VALID,88,VALID,0.6875,
2008-09-05, 03:39:04,VALID,1001.86,VALID,0,VALID,89.5707,VALID,0,VALID,25.3779,VALID,85,VALID,1.11133,
2008-09-05, 03:40:04,VALID,1001.9,VALID,0,VALID,89.3494,VALID,0,VALID,25.4169,VALID,94,VALID,0.671094,
2008-09-05, 03:41:04,VALID,1001.87,VALID,0,VALID,89.1664,VALID,0,VALID,25.4558,VALID,120,VALID,0.279687,
2008-09-05, 03:42:04,VALID,1001.89,VALID,0,VALID,89.029,VALID,0.100563,VALID,25.4558,VALID,120,VALID,0,
2008-09-05, 03:43:04,VALID,1001.88,VALID,0,VALID,88.9146,VALID,0,VALID,25.4753,VALID,120,VALID,0,
2008-09-05, 03:44:04,VALID,1001.87,VALID,0,VALID,88.8841,VALID,0.100563,VALID,25.4753,VALID,120,VALID,0,